This demonstration page uses our WeatherBlox Daily Observations layout. Learn more.

Left ArrowRight Arrow

Hourly Observations for January 27, 2016

Temp ( °F °C ) Dew Point ( °F °C ) Humidity (%) Winds ( mph kmh ) Pressure ( in mb ) Visibility ( mi km ) Precip ( " mm )
12:54 am 00:54 Clear with Mist and Fog 16 -8.9 13 -10.6 88 88 S 3 6 30.31 1026 6 10 0.00 0.00
1:54 am 01:54 Clear with Mist and Fog 17 -8.3 14 -10 88 88 Calm 30.29 1026 6 10 0.00 0.00
2:54 am 02:54 Clear with Mist and Fog 16 -8.9 13 -10.6 88 88 S 5 7 30.29 1026 6 10 0.00 0.00
3:54 am 03:54 Clear 15 -9.4 12 -11.1 88 88 Calm 30.28 1025 7 11 0.00 0.00
4:54 am 04:54 Clear with Mist and Fog 13 -10.6 10 -12.2 88 88 SSE 7 11 30.25 1024 6 10 0.00 0.00
5:54 am 05:54 Clear 16 -8.9 14 -10 92 92 SSE 5 7 30.24 1024 7 11 0.00 0.00
6:54 am 06:54 Clear 14 -10 12 -11.1 92 92 SSE 6 9 30.24 1024 7 11 0.00 0.00
7:54 am 07:54 Sunny with Mist and Fog 17 -8.3 15 -9.4 92 92 SSE 5 7 30.22 1023 6 10 0.00 0.00
8:54 am 08:54 Sunny 19 -7.2 16 -8.9 88 88 S 6 9 30.20 1023 10 16 0.00 0.00
9:54 am 09:54 Sunny 25 -3.9 21 -6.1 85 85 SSW 6 9 30.18 1022 10 16 0.00 0.00
10:54 am 10:54 Sunny 30 -1.1 25 -3.9 82 82 Calm 30.18 1022 10 16 0.00 0.00
11:54 am 11:54 Sunny 35 1.7 25 -3.9 67 67 S 10 17 30.14 1021 10 16 0.00 0.00
12:54 pm 12:54 Sunny 38 3.3 26 -3.3 62 62 SSW 12 19 30.10 1019 10 16 0.00 0.00
1:54 pm 13:54 Mostly Sunny 39 3.9 28 -2.2 65 65 SW 12 19 30.07 1018 10 16 0.00 0.00
2:54 pm 14:54 Cloudy 40 4.4 30 -1.1 68 68 W 10 17 30.06 1018 10 16 0.00 0.00
3:54 pm 15:54 Cloudy 40 4.4 32 0 73 73 VRB 5 7 30.06 1018 10 16 0.00 0.00
4:54 pm 16:54 Cloudy 40 4.4 32 0 73 73 WSW 5 7 30.06 1018 10 16 0.00 0.00
5:54 pm 17:54 Cloudy 39 3.9 32 0 76 76 W 3 6 30.07 1018 10 16 0.00 0.00
6:54 pm 18:54 Clear 36 2.2 31 -0.6 82 82 SW 3 6 30.08 1019 10 16 0.00 0.00
7:54 pm 19:54 Clear 36 2.2 30 -1.1 79 79 Calm 30.08 1019 10 16 0.00 0.00
8:54 pm 20:54 Clear 40 4.4 31 -0.6 70 70 WNW 7 11 30.06 1018 10 16 0.00 0.00
9:54 pm 21:54 Clear 38 3.3 30 -1.1 73 73 NW 7 11 30.05 1018 10 16 0.00 0.00
10:54 pm 22:54 Clear 40 4.4 30 -1.1 68 68 NW 6 9 30.04 1017 10 16 0.00 0.00
11:54 pm 23:54 Clear 37 2.8 29 -1.7 73 73 W 5 7 30.02 1017 10 16 0.00 0.00

Powered by AerisWeather